Volver al catálogo

COSMOS 1607

ActivoMilitarLEO
NORAD 15378·PAYLOAD·🇷🇺 Russia

Lanzado Oct 31, 1984 desde Baikonur Cosmodrome

Loading…

Próximos Pases (próximas 24 horas)

TLE

ActualizadoSource: Space-Track

Época: Sep 14, 2026, 05:19 UTC

1 15378U 84112A   26257.22152975 -.00000063  00000-0  23244-4 0  9994
2 15378  64.9917 190.7633 0054762 308.5133  51.1023 13.83714776117309

Sigue COSMOS 1607 en tiempo real con AllMySat

Download on the App Store